Wind_Speed
14 12 13 15 18 20 22 22 22 23 25 26 27 16 12 11 9 13 18 19 24 20 20 16 12 15 12 12 18 18 22 25 17 16 17 17 21 24 18 17 23 29 32 35
14 14 14 14 18 20 21 22 23 19 23 26 25 19 15 18 19 20 15 19 20 23 22 24 16 20 15 20 18 23 19 20 19 19 22 22 23 23 25 26 27 33 38 34
11 10 11 12 15 17 19 19 21 20 18 25 29 19 24 27 28 24 13 15 18 19 23 27 23 23 20 17 20 19 16 20 22 24 25 26 29 30 32 35 36 40 46 32
9 7 7 7 11 13 15 15 14 14 10 11 23 12 15 23 24 20 13 15 19 18 12 5 14 15 16 17 16 15 16 19 25 27 30 31 34 34 34 37 41 41 43 42
6 8 9 11 12 13 12 10 10 9 7 13 13 10 13 16 18 19 18 17 19 11 17 9 12 17 19 19 14 14 21 30 31 32 34 35 38 40 38 41 38 40 47 37
7 8 10 11 13 16 13 10 9 8 7 13 10 11 9 16 14 16 21 19 16 7 10 17 16 16 14 15 16 21 22 27 30 32 33 36 38 41 40 40 44 44 38 38
8 11 11 8 9 12 10 8 8 9 7 11 12 8 12 10 18 18 25 21 19 14 12 15 20 19 19 22 20 20 25 26 28 30 30 32 34 34 36 37 38 34 36 34
10 13 13 11 10 9 10 9 10 7 5 7 15 19 15 14 15 21 21 27 21 20 15 19 28 25 28 32 22 31 30 27 27 30 33 31 32 35 35 34 33 31 31 35
11 14 15 11 11 12 11 9 13 13 8 7 13 14 15 18 20 20 21 21 25 21 25 25 23 30 30 25 30 34 32 30 32 35 35 32 33 32 30 29 29 29 33 35
11 13 16 14 15 15 14 15 14 14 18 12 11 15 19 20 24 27 27 29 21 26 24 22 25 28 23 30 35 35 33 36 31 32 30 29 29 32 31 32 33 35 35 36
12 11 17 16 20 20 19 23 22 20 19 20 15 11 17 22 25 26 30 32 27 20 23 28 31 31 34 35 29 31 34 38 35 29 31 29 31 30 29 32 31 31 32 35
19 16 13 12 19 23 27 29 25 25 25 26 24 12 19 23 27 28 30 32 33 34 33 33 31 31 31 36 37 39 42 40 39 32 30 28 34 32 30 30 29 31 33 37
27 26 23 19 21 22 26 30 30 31 32 32 32 27 19 25 26 30 31 33 31 34 31 31 31 31 36 38 42 44 47 42 38 36 35 33 32 31 30 32 32 33 37 42
29 32 32 28 27 30 28 27 31 34 35 39 37 37 33 32 31 28 31 33 34 39 38 36 34 33 37 40 46 46 38 37 38 34 37 38 30 29 30 30 32 37 40 42
32 34 35 35 34 33 33 32 32 39 39 43 41 40 40 39 40 40 38 38 39 44 46 46 45 41 39 41 48 42 37 40 50 48 46 33 31 28 30 31 34 38 41 40
33 35 36 37 36 37 39 32 35 36 42 43 45 45 44 43 44 45 45 46 46 47 51 52 51 49 47 50 50 41 42 43 47 53 60 40 34 25 28 26 32 35 37 40
39 38 39 40 36 37 37 32 35 35 35 38 41 44 45 47 48 48 48 50 51 54 55 55 55 52 53 48 40 37 40 41 42 43 41 35 33 30 22 22 27 31 37 39
39 37 39 39 36 37 33 32 30 32 33 35 35 37 39 41 43 45 46 48 50 51 50 47 45 46 46 42 40 38 42 42 41 41 39 38 18 14 17 22 28 34 39 41
36 34 36 36 34 35 28 30 29 30 33 33 33 35 37 40 43 44 44 44 45 48 50 45 48 44 40 41 42 43 47 46 40 39 37 34 37 29 24 28 32 37 38 38
32 33 33 32 34 35 30 29 30 30 34 35 37 37 37 38 40 42 43 44 45 45 47 47 49 48 36 40 42 46 48 45 40 37 37 35 35 32 31 33 36 36 35 39
33 34 33 31 33 34 35 32 33 34 34 35 38 41 44 45 44 42 44 45 44 46 47 49 55 43 40 39 42 47 42 41 37 36 35 32 31 31 32 34 35 35 35 39
31 32 31 34 37 39 37 40 40 40 40 41 41 44 47 49 50 49 47 44 43 45 48 51 42 48 50 39 40 42 41 39 36 30 29 26 26 27 29 33 34 36 37 37
31 32 35 39 39 38 40 42 44 46 48 50 51 50 48 48 50 49 49 40 46 48 49 50 56 37 36 34 36 38 35 34 32 29 27 22 23 25 29 31 32 35 37 35
30 36 40 39 33 38 43 47 48 50 52 54 56 58 57 52 50 53 53 45 41 42 36 37 41 44 40 37 34 32 31 28 29 27 24 23 24 26 27 28 31 34 33 35
31 36 42 44 38 43 43 45 48 53 56 57 59 60 58 53 46 45 49 48 51 39 31 27 28 27 30 30 30 32 30 24 27 26 25 25 24 23 24 28 31 33 34 36
33 40 43 40 37 42 44 47 51 53 53 53 52 49 47 46 42 40 35 37 40 40 36 33 30 28 31 32 30 30 23 22 24 24 21 22 21 18 24 29 32 34 34 37
Wind_Direction
257 259 258 253 249 249 250 251 252 251 253 273 285 262 264 334 297 269 262 271 272 280 279 278 262 277 299 305 305 314 329 323 304 302 301 295 300 303 311 307 303 300 301 302
265 265 261 265 263 261 260 263 266 262 264 278 278 295 311 306 301 281 262 266 272 270 279 268 268 284 292 295 309 320 311 303 294 286 288 292 290 298 305 304 300 298 293 296
271 271 274 278 279 280 274 268 268 271 263 272 278 294 287 269 275 274 258 268 265 275 288 268 257 270 292 298 307 300 293 286 287 286 287 293 295 301 302 302 299 292 291 291
266 284 287 279 273 269 264 269 271 276 274 256 251 272 259 259 270 261 240 269 272 291 291 251 263 284 286 283 290 290 283 283 287 286 289 292 293 294 296 296 293 303 301 297
271 270 271 277 286 289 275 270 279 285 262 242 258 207 257 262 256 231 243 262 274 340 317 315 271 275 290 260 269 287 292 293 288 290 283 282 283 288 289 288 296 299 299 305
278 283 291 310 309 301 288 283 297 295 293 251 265 222 276 269 260 236 248 262 251 264 239 267 300 286 280 299 295 301 312 306 306 302 293 288 286 285 287 287 291 293 296 298
273 281 292 307 314 326 326 313 289 302 302 265 264 243 240 294 268 253 262 275 265 254 242 254 258 287 295 307 314 322 320 315 316 315 306 297 296 292 292 290 290 289 288 288
262 265 290 304 297 303 315 298 316 319 287 259 265 264 255 249 272 273 283 288 292 287 266 296 303 299 308 308 303 312 320 313 310 307 306 304 301 295 293 295 298 292 288 290
262 259 273 281 287 291 304 313 321 310 295 258 271 264 253 256 253 270 275 275 280 279 293 292 289 295 296 304 300 306 316 308 293 291 299 296 297 297 295 293 290 289 294 298
273 256 270 275 283 284 294 290 291 299 305 295 265 261 260 267 271 279 283 285 275 286 289 290 284 295 322 323 308 309 314 313 305 294 299 294 293 293 293 292 292 294 297 302
267 272 270 281 279 282 273 281 286 290 289 295 307 279 262 269 270 271 266 275 283 295 293 287 283 288 304 308 305 304 303 304 298 304 295 285 284 287 291 293 296 297 301 308
275 276 267 282 289 282 281 284 286 283 283 281 284 280 290 282 275 276 274 273 276 281 289 298 291 298 305 307 303 296 307 305 303 304 297 278 276 278 281 288 295 297 301 306
286 283 279 274 275 267 267 274 278 281 283 281 283 286 277 284 285 286 290 296 300 307 305 304 308 302 305 310 306 305 307 301 298 291 287 280 276 277 284 290 292 297 302 308
282 282 281 277 268 264 261 268 268 271 274 273 277 283 283 278 277 277 278 286 285 290 295 296 295 296 294 298 302 301 299 291 285 274 276 270 269 272 278 285 292 299 302 304
278 279 279 278 276 270 267 260 262 267 270 273 276 273 276 276 281 282 282 281 280 282 288 291 294 294 296 297 300 296 293 292 291 285 319 245 251 261 275 285 292 296 302 308
279 280 279 278 278 276 274 273 266 259 266 269 274 277 277 277 280 282 285 286 286 283 285 288 290 292 293 295 293 287 290 293 295 312 308 333 270 264 269 283 294 300 308 309
284 285 282 280 277 274 274 273 271 270 265 266 270 274 278 279 280 280 282 283 284 283 284 286 287 286 285 284 285 285 287 293 300 309 319 322 318 274 267 289 300 302 310 312
285 284 284 282 279 276 276 275 274 272 269 270 272 273 273 273 274 276 277 278 280 280 281 281 280 276 271 276 281 283 287 292 295 304 310 316 320 303 307 313 311 313 311 314
279 278 278 279 280 280 283 281 278 273 270 271 277 280 283 285 287 286 284 282 281 280 279 278 277 270 263 271 279 285 288 287 294 301 302 303 315 325 318 316 318 315 315 319
277 276 275 279 281 284 288 282 281 281 281 287 286 289 290 290 289 287 285 283 280 281 284 279 276 274 266 271 280 286 289 292 295 298 302 298 300 309 310 316 317 316 319 325
278 278 282 282 283 286 285 286 284 287 287 289 291 291 290 289 285 279 277 278 279 280 281 279 278 273 269 275 279 283 287 290 296 299 303 298 296 300 308 316 318 318 319 327
277 283 285 283 282 279 286 287 289 287 285 285 285 286 288 287 282 279 279 277 276 274 277 273 284 278 280 272 280 278 283 292 299 302 306 298 297 301 311 313 314 317 319 327
278 280 282 279 280 286 286 284 286 291 295 295 296 294 290 285 283 279 274 274 280 275 280 275 269 286 276 275 282 283 286 292 296 301 306 299 300 307 307 310 315 316 324 324
281 279 277 276 279 282 284 288 296 298 297 297 297 295 292 289 284 282 281 278 272 276 276 274 273 270 279 287 279 283 290 288 288 290 294 301 307 308 306 310 313 320 323 324
282 273 273 276 284 282 287 294 295 296 295 294 292 291 290 289 284 279 277 274 277 277 260 278 287 285 285 284 282 285 286 288 282 281 286 298 303 304 307 308 315 326 320 325
271 268 276 287 286 286 294 291 288 289 290 291 290 289 290 290 287 280 278 274 273 278 264 272 287 276 277 281 284 286 291 284 280 279 288 292 295 305 310 311 325 325 320 324
Height
5880 5882 5882 5882 5881 5881 5882 5883 5884 5883 5882 5882 5880 5882 5882 5882 5881 5879 5877 5876 5875 5874 5877 5878 5879 5880 5880 5882 5881 5879 5877 5875 5875 5874 5874 5873 5871 5867 5866 5865 5862 5858 5852 5845
5878 5879 5879 5879 5878 5878 5878 5879 5879 5881 5879 5878 5877 5879 5880 5879 5877 5874 5873 5874 5873 5871 5872 5873 5875 5876 5876 5877 5876 5876 5874 5872 5870 5869 5867 5866 5864 5862 5860 5858 5855 5849 5842 5836
5875 5876 5876 5877 5876 5876 5876 5876 5876 5876 5877 5874 5872 5876 5876 5873 5867 5869 5871 5872 5871 5870 5868 5868 5870 5872 5872 5873 5872 5870 5869 5867 5866 5864 5861 5859 5856 5853 5852 5850 5846 5839 5833 5825
5874 5874 5874 5874 5873 5873 5873 5872 5872 5872 5873 5870 5867 5873 5865 5864 5865 5865 5868 5869 5869 5868 5866 5865 5867 5868 5868 5868 5867 5866 5864 5863 5860 5859 5855 5852 5847 5847 5846 5843 5837 5830 5826 5821
5874 5872 5873 5873 5873 5872 5872 5871 5870 5870 5869 5866 5866 5869 5863 5862 5863 5864 5867 5866 5865 5863 5863 5863 5864 5863 5862 5863 5863 5863 5861 5857 5855 5853 5850 5847 5845 5842 5840 5837 5829 5826 5823 5814
5871 5871 5871 5871 5871 5870 5871 5869 5868 5867 5867 5865 5865 5865 5863 5860 5861 5862 5863 5863 5861 5861 5860 5861 5860 5861 5860 5859 5859 5859 5856 5851 5846 5842 5841 5841 5838 5835 5833 5829 5826 5822 5816 5813
5869 5868 5868 5869 5869 5867 5866 5866 5866 5867 5867 5865 5863 5863 5862 5860 5858 5859 5858 5859 5859 5856 5856 5855 5856 5856 5855 5855 5854 5852 5849 5845 5842 5839 5835 5833 5831 5826 5823 5821 5817 5813 5810 5805
5867 5867 5866 5867 5866 5867 5865 5864 5864 5864 5865 5864 5861 5860 5862 5860 5857 5855 5855 5854 5859 5857 5855 5854 5853 5850 5852 5849 5847 5845 5842 5839 5836 5832 5828 5826 5823 5819 5815 5812 5808 5805 5802 5798
5866 5865 5864 5865 5864 5865 5864 5863 5862 5861 5861 5861 5860 5859 5857 5857 5856 5854 5855 5854 5852 5851 5851 5849 5848 5846 5844 5844 5841 5839 5837 5831 5827 5823 5821 5818 5815 5811 5807 5804 5802 5802 5795 5790
5864 5864 5863 5863 5861 5861 5860 5860 5860 5859 5859 5858 5858 5856 5856 5855 5853 5852 5850 5848 5849 5848 5846 5845 5843 5842 5840 5839 5835 5834 5830 5826 5821 5816 5815 5811 5807 5804 5800 5797 5794 5790 5787 5784
5863 5863 5862 5862 5859 5858 5857 5855 5855 5856 5856 5854 5855 5856 5853 5850 5848 5847 5844 5842 5842 5843 5843 5842 5840 5837 5837 5834 5830 5828 5825 5819 5814 5811 5808 5806 5800 5796 5793 5788 5785 5782 5779 5776
5857 5858 5860 5861 5858 5856 5852 5851 5852 5852 5852 5848 5848 5853 5849 5846 5842 5841 5840 5839 5840 5840 5838 5837 5837 5834 5831 5827 5824 5820 5814 5808 5804 5803 5799 5795 5791 5788 5786 5783 5781 5778 5774 5769
5850 5851 5853 5855 5854 5852 5849 5848 5846 5844 5842 5843 5841 5843 5846 5840 5838 5838 5837 5836 5835 5835 5833 5832 5829 5827 5823 5820 5816 5810 5805 5798 5796 5791 5788 5783 5779 5778 5778 5776 5773 5771 5768 5764
5843 5842 5843 5845 5846 5842 5843 5842 5839 5838 5835 5833 5833 5831 5834 5833 5832 5832 5831 5829 5827 5826 5825 5824 5822 5821 5819 5816 5807 5802 5799 5789 5778 5768 5770 5769 5770 5771 5772 5770 5768 5765 5761 5754
5836 5835 5834 5835 5835 5835 5834 5835 5835 5830 5829 5825 5826 5825 5825 5825 5823 5822 5822 5823 5822 5820 5817 5815 5812 5811 5810 5806 5799 5797 5793 5785 5776 5733 5738 5736 5757 5761 5762 5762 5759 5757 5753 5747
5828 5827 5827 5826 5826 5824 5822 5827 5824 5824 5820 5819 5816 5816 5816 5816 5814 5812 5811 5811 5810 5809 5807 5805 5803 5802 5799 5794 5792 5789 5785 5778 5773 5764 5760 5755 5749 5750 5753 5752 5751 5748 5743 5738
5817 5818 5818 5816 5817 5814 5813 5815 5812 5814 5814 5812 5810 5809 5808 5805 5803 5801 5800 5799 5799 5798 5795 5793 5792 5791 5788 5783 5780 5780 5776 5772 5767 5762 5757 5754 5749 5745 5745 5744 5743 5740 5735 5730
5811 5808 5805 5804 5806 5804 5805 5804 5805 5803 5801 5801 5801 5800 5798 5796 5794 5792 5792 5790 5789 5786 5784 5781 5780 5777 5775 5771 5771 5770 5766 5764 5762 5759 5754 5750 5744 5742 5740 5739 5735 5731 5727 5720
5800 5799 5796 5794 5795 5794 5796 5795 5794 5793 5792 5792 5792 5790 5788 5785 5783 5780 5779 5779 5776 5773 5771 5769 5767 5766 5763 5760 5760 5760 5757 5755 5754 5753 5749 5747 5744 5740 5736 5732 5728 5724 5718 5710
5792 5790 5788 5787 5786 5785 5786 5785 5785 5784 5782 5782 5779 5778 5777 5774 5770 5768 5765 5763 5761 5762 5762 5760 5756 5755 5753 5751 5750 5749 5748 5748 5747 5745 5743 5740 5738 5733 5729 5725 5721 5716 5709 5703
5783 5782 5783 5782 5779 5777 5775 5776 5774 5771 5772 5769 5766 5763 5761 5759 5757 5755 5752 5750 5749 5749 5748 5748 5745 5744 5743 5743 5742 5742 5741 5740 5740 5738 5736 5733 5730 5727 5723 5719 5714 5708 5702 5696
5778 5777 5777 5774 5770 5766 5767 5763 5762 5761 5758 5757 5755 5752 5749 5747 5743 5741 5739 5737 5736 5735 5737 5736 5732 5731 5731 5731 5731 5732 5732 5730 5730 5730 5727 5724 5721 5719 5717 5712 5707 5701 5695 5689
5772 5771 5767 5763 5760 5759 5755 5751 5749 5747 5745 5742 5740 5739 5736 5733 5730 5727 5725 5722 5723 5721 5722 5722 5722 5722 5721 5722 5723 5723 5722 5721 5721 5721 5719 5716 5714 5713 5710 5706 5700 5696 5689 5682
5766 5759 5753 5751 5754 5748 5742 5739 5738 5735 5733 5730 5726 5722 5717 5715 5713 5709 5709 5710 5709 5709 5709 5708 5709 5712 5714 5714 5715 5715 5714 5714 5713 5713 5714 5712 5710 5707 5703 5700 5695 5690 5684 5676
5754 5745 5741 5739 5743 5736 5734 5731 5726 5723 5718 5713 5709 5703 5700 5699 5699 5699 5699 5700 5698 5698 5698 5698 5701 5703 5704 5706 5707 5706 5707 5708 5706 5707 5708 5707 5705 5702 5699 5695 5689 5684 5678 5670
5736 5732 5731 5731 5731 5725 5724 5719 5712 5708 5705 5699 5694 5692 5688 5685 5684 5684 5687 5687 5687 5687 5689 5689 5693 5695 5697 5699 5700 5700 5700 5700 5700 5700 5702 5702 5700 5697 5694 5689 5684 5678 5672 5666